[[{"header":{"parameterUnit":"m.s-1","parameterCategory":1,"la1":30.2992,"la2":30.254,"lo1":-89.0895,"lo2":-89.0443,"dy":0.0025,"dx":0.0025,"nx":19,"ny":19,"refTime":"2026-04-10T09:00:00:Z","depth":0,"parameterNumber":2,"parameterNumberName":"U-component_of_WINDS"},"data":[0,0,0,-1.3511,-1.3511,-1.3507,-1.3507,-1.3532,-1.3533,0,0,0,0,0,0,0,0,0,0,0,-1.3532,-1.3532,-1.3511,-1.3511,-1.3507,-1.3507,-1.3532,-1.3533,0,0,0,0,0,0,0,0,0,0,0,-1.3531,-1.3532,-1.3533,-1.3512,-1.3507,-1.3507,-1.3532,-1.3524,0,0,0,0,0,0,0,0,0,0,-1.3523,-1.3561,-1.3532,-1.3533,-1.3512,-1.3507,-1.3507,-1.3523,-1.3525,-1.3548,0,-1.3573,0,-1.3553,-1.3536,-1.3537,0,0,0,-1.3497,-1.356,-1.3541,-1.3533,-1.3512,-1.3507,-1.3505,-1.3524,-1.3525,-1.355,-1.3573,-1.3573,-1.3554,-1.3537,-1.3537,-1.3716,-1.3717,0,0,-1.3498,-1.3541,-1.354,-1.3543,-1.3546,-1.3505,-1.3505,-1.3524,-1.3553,-1.3573,-1.3573,-1.3554,-1.3537,-1.3538,-1.3714,-1.3716,0,0,0,-1.3508,-1.3542,-1.3522,-1.3543,-1.354,-1.3505,-1.3505,-1.3552,-1.3542,-1.3573,-1.3555,-1.3537,-1.3538,-1.3712,-1.3715,-1.3832,0,0,0,-1.3507,-1.3548,-1.3523,-1.355,-1.354,-1.3546,-1.3533,-1.354,-1.3541,-1.3554,-1.3537,-1.3539,-1.3711,-1.3714,-1.3825,-1.3881,0,0,0,-1.3525,-1.355,-1.3556,-1.3552,-1.3551,-1.3545,-1.3535,-1.354,-1.3531,-1.3537,-1.3539,-1.371,-1.3713,-1.3819,-1.3871,-1.3942,0,0,0,-1.3557,-1.366,-1.3558,-1.3665,-1.3552,-1.3616,-1.3534,-1.358,-1.3599,-1.3538,-1.3711,-1.3715,-1.3817,-1.3864,-1.3935,-1.4011,-1.4046,0,0,-1.3711,-1.368,-1.3739,-1.3648,-1.3742,-1.3614,-1.3724,-1.3701,-1.3661,-1.37,-1.3703,-1.3827,-1.387,-1.394,-1.4222,-1.425,0,0,0,-1.3803,-1.3847,-1.3862,-1.3882,-1.3865,-1.3856,-1.381,-1.3801,-1.3831,-1.369,-1.3869,-1.3894,-1.3933,-1.3967,-1.3991,-1.4023,-1.3732,-1.3731,-1.3731,-1.4086,-1.4028,-1.4123,-1.4066,-1.4086,-1.4036,-1.4048,-1.4027,-1.3964,-1.4008,-1.402,-1.4198,-1.4239,-1.4257,-1.429,-1.4053,-1.4053,-1.4054,-1.4054,-1.4307,-1.4361,-1.4272,-1.4333,-1.4272,-1.4322,-1.4279,-1.4232,-1.4271,-1.4184,-1.4216,-1.4129,-1.4289,-1.4316,-1.4062,-1.4061,-1.406,-1.4059,-1.4058,-1.4488,-1.4504,-1.4489,-1.4511,-1.4534,-1.4471,-1.4512,-1.4454,-1.4401,-1.4432,-1.4439,-1.4437,-1.4429,-1.4439,-1.444,-1.444,-1.4441,-1.4441,-1.4441,-1.4682,-1.4662,-1.4703,-1.4693,-1.4698,-1.4696,-1.4646,-1.4649,-1.4638,-1.4593,-1.4593,-1.4527,-1.4314,-1.4264,-1.4451,-1.4449,-1.4448,-1.4447,-1.4447,-1.4933,-1.4866,-1.493,-1.4935,-1.4917,-1.4944,-1.4869,-1.488,-1.4873,-1.4895,-1.4821,-1.4673,-1.4637,-1.4618,-1.4576,-1.4832,-1.4832,-1.4832,-1.4832,-1.5087,-1.5062,-1.5114,-1.5125,-1.5128,-1.5066,-1.5141,-1.5102,-1.5053,-1.5045,-1.4999,-1.4937,-1.4919,-1.4894,-1.4869,-1.4829,-1.5144,-1.5144,-1.5144,-1.5238,-1.5211,-1.5286,-1.5235,-1.5216,-1.5202,-1.527,-1.5286,-1.5216,-1.5156,-1.5039,-1.5025,-1.4924,-1.4894,-1.4836,-1.4797,-1.4722,0,0]},{"header":{"parameterUnit":"m.s-1","parameterCategory":1,"la1":30.2992,"la2":30.254,"lo1":-89.0895,"lo2":-89.0443,"dy":0.0025,"dx":0.0025,"nx":19,"ny":19,"refTime":"2026-04-10T09:00:00:Z","depth":0,"parameterNumber":3,"parameterNumberName":"V-component_of_WINDS"},"data":[0,0,0,-1.2464,-1.2466,-1.2554,-1.2555,-1.2644,-1.2644,0,0,0,0,0,0,0,0,0,0,0,-1.2425,-1.2425,-1.2464,-1.2466,-1.2554,-1.2555,-1.2644,-1.2644,0,0,0,0,0,0,0,0,0,0,0,-1.2425,-1.2425,-1.2426,-1.2466,-1.2554,-1.2555,-1.2643,-1.2585,0,0,0,0,0,0,0,0,0,0,-1.2503,-1.2455,-1.2425,-1.2426,-1.2467,-1.2554,-1.2555,-1.2582,-1.2588,-1.2594,0,-1.2597,0,-1.2622,-1.2649,-1.2649,0,0,0,-1.2475,-1.2449,-1.2485,-1.2426,-1.2467,-1.2554,-1.2517,-1.2586,-1.2593,-1.2602,-1.2598,-1.2602,-1.2623,-1.2649,-1.265,-1.2655,-1.2654,0,0,-1.247,-1.2434,-1.248,-1.2489,-1.2476,-1.2514,-1.252,-1.2591,-1.2584,-1.2599,-1.2605,-1.2625,-1.265,-1.265,-1.2655,-1.2655,0,0,0,-1.245,-1.243,-1.2464,-1.2485,-1.2503,-1.2516,-1.2523,-1.258,-1.2595,-1.2606,-1.2626,-1.265,-1.2651,-1.2656,-1.2655,-1.26,0,0,0,-1.2447,-1.2418,-1.2462,-1.244,-1.2501,-1.2543,-1.2511,-1.259,-1.2599,-1.2625,-1.265,-1.2652,-1.2656,-1.2655,-1.2602,-1.2579,0,0,0,-1.2424,-1.2416,-1.2424,-1.2438,-1.2475,-1.2543,-1.2562,-1.2593,-1.2611,-1.2649,-1.2652,-1.2656,-1.2655,-1.2605,-1.2583,-1.2569,0,0,0,-1.2387,-1.2373,-1.2423,-1.2415,-1.2474,-1.2509,-1.2562,-1.2589,-1.2615,-1.265,-1.2656,-1.2655,-1.2605,-1.2585,-1.2571,-1.255,-1.2538,0,0,-1.2349,-1.2367,-1.2366,-1.2413,-1.243,-1.2499,-1.2507,-1.2565,-1.2601,-1.2634,-1.2635,-1.2602,-1.2583,-1.257,-1.2488,-1.2478,0,0,0,-1.2341,-1.2339,-1.2352,-1.2376,-1.2421,-1.2457,-1.2518,-1.2539,-1.257,-1.2611,-1.2595,-1.2585,-1.2578,-1.257,-1.2562,-1.2558,-1.265,-1.265,-1.265,-1.2232,-1.2282,-1.2282,-1.2341,-1.2364,-1.2427,-1.245,-1.2489,-1.253,-1.2526,-1.2535,-1.248,-1.2468,-1.2462,-1.2458,-1.2529,-1.2529,-1.2529,-1.2529,-1.218,-1.2184,-1.2242,-1.2262,-1.2313,-1.233,-1.239,-1.2419,-1.2441,-1.2476,-1.2473,-1.2505,-1.245,-1.2449,-1.2525,-1.2526,-1.2526,-1.2527,-1.2527,-1.2113,-1.2123,-1.2151,-1.2192,-1.2217,-1.2278,-1.2297,-1.2343,-1.2386,-1.2383,-1.2397,-1.2398,-1.2404,-1.2387,-1.2387,-1.2387,-1.2387,-1.2386,-1.2386,-1.2031,-1.2065,-1.2076,-1.2124,-1.2146,-1.218,-1.2245,-1.2267,-1.2303,-1.2334,-1.2335,-1.2375,-1.2437,-1.245,-1.2383,-1.2384,-1.2384,-1.2385,-1.2385,-1.1956,-1.1981,-1.1999,-1.2021,-1.208,-1.2102,-1.2162,-1.2203,-1.2228,-1.2235,-1.2278,-1.2317,-1.2338,-1.2344,-1.2356,-1.2269,-1.2269,-1.2269,-1.2268,-1.1899,-1.1915,-1.1944,-1.1976,-1.2012,-1.2068,-1.2084,-1.2134,-1.2189,-1.2207,-1.2227,-1.2247,-1.2252,-1.227,-1.2278,-1.229,-1.2187,-1.2187,-1.2187,-1.1855,-1.1877,-1.1883,-1.1939,-1.1989,-1.2031,-1.2047,-1.208,-1.2148,-1.2185,-1.2222,-1.2226,-1.2258,-1.2266,-1.2302,-1.2314,-1.2335,0,0]}]]